Wind_Speed
23 23 23 23 23 21 20 19 18 17 16 15 15 15 15 15 15 15 14 13 13 12 12 11 10 9 8 8 8 8 9 10 10 10 10 10 12 13 12 11 10 9 9 9 9 8 7 7 7 7 7 8 8 9 10 12 13 13 12 11 9 8 7 6 5 5 5 4 4 3 3 2 1 1 0 1 2 2 3 5 7 9 10 12 13
23 23 23 23 23 23 22 21 19 18 17 16 16 16 15 15 15 15 14 14 13 12 12 11 9 9 8 8 8 8 10 11 12 11 11 11 12 13 13 12 11 10 9 9 9 8 8 7 7 7 7 7 8 8 9 10 12 13 13 12 10 9 8 7 6 5 5 4 4 4 3 2 1 1 2 3 3 4 4 6 7 8 10 12 13
25 25 24 24 24 25 24 23 21 20 18 18 18 18 17 17 16 15 15 15 14 13 12 11 10 10 9 8 8 9 10 12 13 13 13 13 13 13 13 13 12 11 10 9 8 8 8 7 7 6 6 7 7 7 8 9 10 11 13 13 12 11 9 8 7 6 6 5 5 5 5 4 4 4 5 5 5 5 6 7 7 8 10 12 13
26 26 25 25 26 26 26 25 24 22 20 20 20 20 19 18 17 17 17 16 15 15 14 12 11 11 10 9 9 10 11 13 15 15 15 15 15 14 14 13 13 11 10 9 8 7 7 6 6 6 6 5 6 6 6 7 8 9 11 12 12 12 11 10 9 8 7 6 6 6 6 6 7 7 7 7 7 7 7 7 7 8 10 12 14
26 26 26 26 26 26 26 26 26 24 22 22 22 21 21 19 18 18 18 17 17 16 15 14 13 12 11 11 11 11 12 14 16 16 17 17 16 15 15 14 13 12 11 10 8 7 6 5 5 4 4 4 4 4 5 6 7 8 9 11 12 12 12 12 11 10 9 8 8 7 7 8 9 9 9 9 9 9 9 9 8 8 10 12 14
25 26 27 27 27 26 27 27 27 26 25 25 24 23 22 21 20 19 18 18 18 17 17 16 14 14 13 12 12 12 13 14 16 17 17 17 17 16 15 15 14 13 11 10 9 7 6 5 4 3 3 3 3 3 3 4 5 6 7 9 10 12 13 13 13 13 12 11 10 9 9 9 10 11 11 11 11 11 11 12 11 11 12 13 14
24 26 27 27 27 26 26 27 27 28 28 27 27 25 24 22 21 21 20 19 19 18 17 17 16 16 15 14 13 13 13 14 16 18 18 18 18 17 16 15 14 13 11 10 9 8 6 5 4 4 3 3 3 3 4 4 5 6 6 7 9 11 12 13 14 15 14 14 13 12 11 11 11 12 13 14 13 13 13 14 14 14 15 16 16
23 25 26 27 26 25 25 26 27 28 29 29 29 27 25 24 23 22 22 20 19 19 18 18 19 18 17 15 14 14 14 14 16 18 19 19 19 18 17 15 14 12 11 10 9 8 7 6 5 5 5 5 5 5 6 6 6 7 8 8 9 10 11 12 14 15 16 16 16 15 14 14 13 12 14 16 16 15 15 16 17 17 18 17 16
24 25 26 26 26 26 26 26 27 28 30 30 29 28 27 26 25 24 23 22 21 20 20 20 20 20 18 17 15 14 14 15 16 18 20 20 20 19 18 17 15 13 12 10 9 8 7 7 7 6 6 6 6 7 7 8 8 9 9 9 10 11 11 12 13 15 16 17 18 18 17 17 16 14 15 16 17 17 17 18 19 20 21 21 18
27 26 25 26 27 27 27 27 27 28 29 30 30 30 30 29 28 27 25 24 23 22 21 21 21 20 19 18 17 15 15 16 17 19 21 22 21 21 20 18 17 15 13 11 10 9 9 8 8 7 7 7 8 8 8 8 9 10 11 10 11 12 13 13 13 14 15 17 18 19 19 20 20 17 16 17 18 19 20 20 21 21 23 23 21
28 27 25 26 27 29 28 28 27 27 28 28 30 30 31 31 30 29 28 27 25 24 23 22 22 21 21 20 18 17 17 18 18 20 21 23 23 22 22 21 19 17 16 14 12 12 11 9 9 8 8 9 9 9 9 9 10 11 11 11 11 12 13 14 15 16 16 17 18 19 19 22 23 21 19 19 19 20 21 22 23 23 23 24 23
30 27 26 27 28 29 29 28 27 26 25 25 27 29 30 31 31 31 30 29 28 27 25 24 23 23 23 21 20 19 19 20 20 20 22 23 24 24 24 23 21 20 18 16 15 13 12 10 10 10 10 11 11 11 11 11 11 12 12 12 12 12 13 15 16 18 18 18 18 19 20 21 23 23 22 21 21 21 22 23 24 25 24 24 25
32 30 28 28 28 28 28 28 27 25 24 24 25 27 28 29 30 30 31 31 31 30 28 27 26 25 24 23 22 22 22 22 22 22 22 23 25 25 25 25 24 22 20 18 16 15 13 12 12 12 13 13 13 13 13 13 13 13 13 14 14 14 14 15 16 18 19 19 20 21 22 22 22 24 24 23 24 23 23 23 24 25 25 25 25
36 33 30 28 27 27 28 28 28 27 26 26 26 26 26 27 28 30 31 33 33 31 30 30 29 28 27 25 25 24 24 24 24 23 23 24 24 25 26 26 26 25 23 20 18 17 15 15 14 15 16 16 16 16 16 16 15 14 14 15 16 16 16 16 17 17 18 19 20 22 24 23 23 24 24 24 25 26 25 25 25 25 25 25 25
36 34 32 30 28 28 27 27 27 27 27 27 27 26 26 26 28 30 32 33 33 33 33 32 31 31 30 28 27 26 26 26 26 25 25 25 25 25 26 26 27 26 25 23 21 19 18 18 18 18 19 19 19 19 19 18 17 16 16 17 18 18 17 18 18 18 19 20 21 23 25 25 25 25 24 23 24 25 26 27 28 27 26 26 26
35 34 32 31 30 29 28 28 28 28 29 29 29 29 28 28 29 31 32 33 33 33 33 33 33 33 32 31 30 28 28 28 28 27 26 26 26 25 25 25 26 26 26 25 24 22 22 21 21 21 22 23 23 22 22 21 19 18 18 18 19 19 19 19 20 20 20 20 21 23 25 26 26 26 25 24 23 24 25 27 29 29 28 28 27
37 36 34 33 32 31 30 29 28 29 29 30 30 30 31 31 32 33 33 32 33 33 33 33 33 34 34 33 32 31 30 30 29 28 28 28 27 26 26 26 26 26 26 26 25 25 24 24 24 24 24 25 26 26 25 24 22 20 19 20 20 20 20 22 22 22 21 21 22 23 25 26 26 26 26 26 25 24 24 25 27 28 28 29 29
39 38 37 36 35 33 32 31 29 29 28 28 29 30 32 33 34 34 34 33 33 33 33 33 34 34 34 34 33 33 33 33 32 31 30 30 28 27 26 26 27 27 27 27 27 26 26 27 26 26 26 28 29 29 28 26 25 23 22 21 20 21 22 25 25 23 22 22 22 23 25 26 27 27 27 27 26 25 25 25 26 26 26 28 29
42 41 39 38 36 34 33 32 31 30 28 28 28 30 31 33 33 34 34 34 34 34 34 33 33 34 34 34 34 34 34 34 34 33 32 31 30 28 27 27 27 27 28 29 29 29 29 29 29 28 29 30 31 31 30 29 27 26 25 23 21 23 26 27 26 24 23 23 23 24 24 26 27 27 28 28 27 26 26 26 25 25 24 26 28
42 42 41 39 36 35 34 33 32 31 30 29 30 31 31 31 32 33 34 34 34 35 34 34 33 33 33 34 34 34 34 35 35 35 35 34 32 31 29 28 27 27 29 30 30 30 30 31 31 31 31 32 33 33 32 30 28 28 27 24 24 27 30 29 27 26 25 25 25 24 24 25 25 26 27 28 27 27 27 26 26 24 24 25 27
42 41 41 40 38 36 36 35 34 32 32 32 33 33 32 32 32 33 33 34 34 34 34 34 33 32 32 33 33 33 34 35 35 36 36 35 34 33 31 29 29 29 29 30 30 30 31 31 33 33 33 34 35 35 34 32 29 28 27 27 28 30 31 29 28 28 27 26 27 26 26 26 26 25 25 26 26 26 26 26 26 25 24 25 26
42 41 40 40 40 40 39 38 37 35 33 34 35 35 34 33 33 33 33 34 34 34 34 34 33 32 32 32 33 33 34 34 35 35 36 36 36 35 33 32 32 31 31 30 30 30 30 32 33 35 35 36 36 37 36 34 30 28 29 30 30 31 31 31 30 29 28 28 27 27 27 28 27 26 25 25 24 24 25 26 26 26 24 24 25
45 43 42 42 43 43 42 42 41 38 36 36 37 37 37 36 35 34 34 34 34 33 33 33 32 32 32 32 32 33 33 34 33 33 34 35 35 35 35 34 34 33 32 31 31 31 31 32 34 35 37 37 37 37 37 34 30 28 30 32 32 31 32 32 31 30 29 28 27 26 27 27 26 26 25 24 23 23 23 24 25 26 25 25 26
47 47 46 46 46 46 45 44 43 42 40 39 39 39 39 38 37 35 34 34 34 33 32 32 32 31 31 31 31 32 33 33 33 33 33 34 34 34 34 34 35 35 33 33 33 33 33 34 35 37 38 38 37 37 36 33 30 29 31 33 32 32 31 31 31 31 29 28 26 25 25 24 23 22 22 21 21 21 22 23 24 25 26 27 28
48 49 49 50 50 49 47 45 45 44 43 43 42 41 41 41 39 38 36 35 34 33 32 32 31 30 29 29 30 31 33 33 33 33 33 34 34 34 33 33 33 34 34 34 35 35 36 36 37 38 38 38 37 37 35 32 30 31 32 32 31 31 31 31 30 29 27 26 25 24 23 22 22 21 20 21 21 21 22 23 24 26 27 28 29
48 50 52 52 51 50 47 45 45 44 45 47 46 43 42 42 42 41 39 37 35 33 32 32 31 30 29 28 29 31 32 33 33 33 34 34 34 34 33 33 33 33 33 34 35 36 36 37 37 38 38 37 37 36 34 32 32 32 31 30 30 30 31 30 28 26 23 22 22 21 20 20 19 18 18 19 20 21 22 23 24 26 28 29 30
46 48 53 54 53 50 48 45 43 42 44 48 48 45 42 43 43 43 41 39 37 35 34 34 33 31 29 29 29 31 32 32 32 32 33 34 34 34 36 36 34 34 33 34 35 35 36 38 39 39 38 38 37 36 34 32 32 31 30 30 30 30 30 28 25 23 21 21 21 19 18 17 17 17 18 18 19 21 22 23 25 26 28 29 29
44 44 48 53 54 51 47 43 42 41 44 47 49 47 44 43 42 41 40 39 37 37 36 36 35 34 32 32 32 33 33 32 32 32 33 34 35 36 37 36 36 36 35 36 37 37 38 39 40 39 39 37 37 35 33 32 31 31 31 31 30 30 29 26 24 22 22 22 21 20 19 18 19 20 21 21 21 23 25 26 27 29 30 31 32
46 44 45 48 49 48 45 44 44 43 43 45 47 46 44 42 40 38 38 39 39 39 40 39 38 37 37 36 36 35 34 32 32 33 36 38 38 38 37 36 37 38 39 40 40 38 37 37 38 37 37 37 36 34 32 32 32 33 32 32 31 29 28 26 25 24 24 23 22 20 20 20 21 22 24 24 25 27 28 29 31 32 33 34 35
49 47 46 45 45 45 45 47 47 46 44 44 44 44 42 40 38 38 39 40 41 42 43 42 41 41 41 40 39 38 35 34 34 37 39 40 39 38 37 37 38 40 41 42 40 38 36 35 35 36 36 36 35 33 33 34 34 34 33 32 31 29 27 26 25 24 23 22 21 21 22 23 24 25 27 28 29 31 32 33 35 36 36 37 37
52 50 48 47 47 46 47 48 49 49 47 46 45 44 42 41 40 40 40 40 41 42 43 43 43 44 43 42 41 39 38 37 38 40 41 41 40 38 37 38 39 41 43 42 39 36 35 35 35 35 36 35 34 34 35 36 35 34 33 32 30 28 26 24 23 22 22 21 21 23 25 26 27 28 29 30 32 33 34 36 37 37 38 38 39
54 52 51 50 50 50 50 51 51 51 50 49 48 47 46 45 43 42 41 40 40 40 41 41 42 44 45 44 43 41 39 38 40 42 42 42 42 40 39 39 40 41 43 41 36 34 34 34 34 35 36 35 35 36 37 36 35 35 34 31 29 26 24 23 23 22 22 22 24 26 28 29 29 30 31 32 34 35 36 37 38 38 39 39 39
54 54 53 53 54 54 53 54 54 54 53 53 52 52 51 50 47 44 42 41 40 40 40 40 41 42 43 43 43 42 40 40 42 44 43 42 42 42 42 42 41 40 40 38 34 31 32 34 35 36 36 35 36 38 38 37 37 37 36 32 29 27 25 24 23 23 23 25 27 29 30 31 32 33 34 35 37 38 39 39 39 39 39 39 38
51 53 54 55 56 56 56 56 56 57 57 57 56 56 55 53 50 47 46 44 43 42 42 41 40 41 42 42 43 43 43 44 46 47 44 43 44 44 45 45 42 39 37 36 33 31 32 34 34 35 36 36 38 40 40 39 40 40 37 34 30 26 24 24 24 25 26 27 28 30 31 33 35 36 37 39 40 41 42 42 41 40 38 38 37
50 50 51 54 57 58 58 57 57 59 60 60 60 59 59 57 54 51 50 50 49 47 44 42 42 44 45 45 45 46 46 47 49 49 47 46 47 47 46 45 42 38 35 35 32 31 32 34 34 35 37 39 41 42 41 39 39 38 37 35 30 25 23 24 25 26 26 28 29 31 34 35 37 39 40 41 42 44 44 43 42 40 39 37 35
52 50 50 52 55 58 59 59 59 59 61 63 63 63 62 60 58 56 55 54 53 51 48 46 46 46 46 45 46 47 47 48 50 50 49 48 49 49 47 44 41 38 36 35 34 33 33 34 35 37 40 41 43 42 39 36 37 38 38 37 34 28 25 25 26 27 28 30 32 34 36 38 40 42 43 44 45 45 45 45 45 42 39 35 34
54 52 51 51 53 55 57 60 61 61 62 63 64 65 65 63 62 61 59 57 54 53 52 51 51 49 47 45 45 47 48 49 49 50 51 51 50 49 46 43 41 39 37 36 35 35 34 35 38 40 42 43 43 41 38 35 36 39 39 37 33 27 24 25 28 30 32 33 35 36 38 40 42 44 45 45 46 46 46 48 47 43 37 34 34
56 55 54 53 53 53 54 57 59 61 62 63 64 65 65 64 64 63 60 57 56 55 55 56 55 52 47 45 46 48 50 52 50 48 48 51 51 48 45 42 41 39 38 37 37 37 36 37 40 42 43 43 43 42 38 35 35 37 37 35 30 26 25 28 31 33 34 35 37 38 40 43 45 46 47 47 48 48 45 42 39 36 33 34 36
58 57 56 55 55 54 54 55 56 58 60 61 63 64 63 63 63 61 60 59 58 58 58 60 59 54 49 46 46 48 52 54 53 49 47 48 49 47 44 42 40 39 38 39 39 38 38 38 40 43 44 44 43 41 39 38 38 37 36 35 33 30 30 32 34 35 36 38 39 41 43 45 46 48 48 48 47 45 41 37 35 35 36 37 38
60 59 58 57 56 56 55 54 54 55 56 59 61 62 62 61 60 59 59 61 61 60 60 62 62 60 57 53 50 51 54 55 54 51 50 49 48 46 43 41 40 39 39 40 40 40 40 40 41 43 44 44 43 41 40 40 40 37 33 32 33 34 34 35 36 37 38 40 42 43 45 46 47 49 50 50 47 44 42 41 40 40 39 39 40
62 61 59 57 57 56 55 53 53 53 54 56 58 59 60 60 59 58 58 59 60 60 61 62 63 63 62 60 57 57 58 56 54 54 53 52 50 46 43 42 41 41 40 41 42 42 42 41 41 44 46 45 43 42 40 39 39 36 33 33 35 37 37 38 39 40 41 42 44 45 47 48 48 48 48 47 47 46 46 45 43 42 42 43 44
64 62 59 57 57 56 54 52 52 52 52 53 55 56 56 56 55 55 56 56 56 58 60 61 61 61 61 60 61 62 61 59 57 56 55 53 51 48 45 44 44 44 44 44 43 43 42 42 43 46 47 46 44 42 39 38 38 38 39 39 39 40 41 41 41 41 43 44 46 48 49 48 46 45 44 44 44 46 46 45 44 44 45 45 44
67 63 58 56 57 56 54 53 52 51 51 52 52 52 52 52 51 52 53 53 52 53 56 58 59 59 59 58 60 63 63 61 60 59 57 54 52 50 49 48 47 47 48 48 46 44 43 43 44 46 46 45 44 43 42 41 41 41 41 41 41 42 43 43 43 43 44 46 48 49 48 46 45 45 46 47 46 46 46 45 44 44 44 44 44
68 65 60 58 58 57 55 54 54 53 51 50 49 49 49 49 48 50 52 51 49 49 52 54 55 56 57 57 59 61 62 60 59 58 58 57 55 53 53 52 50 50 52 53 52 48 46 45 46 46 46 45 45 45 45 45 44 43 43 43 43 43 44 45 45 45 45 46 47 48 48 48 47 46 46 47 47 46 45 45 45 44 45 45 45
66 64 62 61 61 59 56 56 57 54 51 49 47 47 48 47 46 48 51 50 48 47 49 51 51 53 56 58 59 60 60 58 57 58 58 59 58 58 57 56 53 51 53 56 55 51 48 48 48 48 48 47 46 46 46 45 45 44 44 44 44 44 45 46 46 46 46 47 48 48 49 48 47 46 45 45 45 45 45 45 44 45 45 45 45
67 65 63 63 63 60 58 58 57 55 52 49 47 47 47 45 43 44 47 49 48 48 48 49 50 51 54 57 59 60 60 58 57 58 60 62 63 62 61 59 55 52 52 55 55 53 51 51 51 51 50 48 46 46 45 45 46 46 46 45 46 46 46 46 46 47 47 47 47 47 48 48 47 47 46 46 46 45 45 45 45 46 47 48 48
71 68 66 66 64 61 59 59 56 53 52 49 46 46 47 45 42 42 45 47 48 48 49 50 51 51 51 51 53 55 57 57 57 59 62 65 68 68 65 61 56 52 52 55 56 54 51 51 51 49 48 47 46 46 46 47 48 48 47 47 48 48 47 46 47 47 47 47 47 47 47 47 46 46 47 47 47 48 48 48 48 49 50 52 53
72 70 69 68 65 60 58 57 55 52 50 48 44 43 45 45 44 43 43 45 48 49 50 51 52 51 52 53 54 55 55 55 57 62 64 65 66 68 66 60 55 53 54 57 56 51 48 48 48 46 46 46 46 47 48 49 49 50 48 48 48 49 48 47 48 48 49 49 49 48 48 48 48 48 49 49 50 51 52 52 53 54 55 56 58
70 69 69 68 64 59 56 55 54 52 51 49 45 42 42 44 45 45 45 45 47 49 51 53 53 53 54 56 57 58 58 57 58 61 63 63 65 66 65 60 57 56 57 58 56 51 47 47 48 48 48 48 48 49 50 51 52 52 51 49 49 50 50 50 49 50 51 52 52 51 51 51 51 52 52 53 54 55 56 56 57 58 59 60 62
68 67 68 68 66 60 56 55 54 53 52 51 48 45 43 42 43 46 46 45 45 48 52 54 56 59 62 62 60 59 58 58 58 60 62 64 67 69 68 64 61 60 59 58 55 52 49 49 50 51 50 50 49 51 54 54 53 51 51 51 51 51 51 52 52 52 53 54 54 54 54 55 55 55 56 56 57 58 59 60 61 62 63 64 66
67 66 67 69 69 65 60 56 55 54 52 51 51 50 47 44 44 45 47 46 47 50 47 39 35 38 45 50 54 56 56 55 57 59 61 64 67 69 68 65 62 61 61 58 53 50 51 52 53 54 53 51 51 53 56 56 52 50 50 52 52 53 53 54 54 55 55 56 56 57 57 58 58 59 59 60 61 62 63 64 65 66 67 69 70
Wind_Direction
207 206 206 204 203 205 206 206 207 208 205 201 203 208 209 208 211 214 217 216 211 208 204 196 185 177 168 159 156 157 161 164 164 168 169 163 154 149 144 141 138 132 126 122 121 126 136 147 155 160 160 162 165 169 170 169 167 166 165 165 165 166 166 167 170 174 178 184 192 191 178 149 140 160 271 301 309 315 322 341 1 9 8 4 2
206 206 207 206 205 206 209 209 208 208 206 202 204 207 208 209 211 212 217 221 219 215 211 202 191 185 177 169 166 166 167 168 168 170 173 170 162 156 152 149 146 141 135 130 125 123 127 134 145 156 163 166 168 171 174 176 178 177 176 177 179 179 177 176 181 187 191 200 215 223 223 205 185 214 261 278 279 284 306 333 350 354 353 351 349
205 204 205 205 206 206 208 211 211 209 206 204 206 208 209 209 209 209 213 218 220 220 216 207 198 191 185 179 177 176 174 173 173 174 176 174 169 164 159 156 153 149 145 139 132 127 126 128 133 142 152 162 169 174 179 183 187 189 189 189 191 190 190 191 194 199 205 213 225 237 244 242 238 245 261 273 278 286 306 325 336 339 338 336 335
205 204 203 205 207 207 207 209 211 210 208 207 208 211 213 212 209 208 212 215 219 222 221 214 205 198 193 187 185 186 183 179 178 178 179 179 176 172 167 163 160 156 152 148 140 135 131 130 130 133 138 147 159 171 182 191 196 199 201 202 203 203 203 205 207 211 217 223 230 239 247 248 248 252 261 271 275 278 287 302 318 328 326 323 325
206 203 202 205 207 207 207 209 210 211 210 209 210 213 215 216 213 212 213 213 216 221 222 220 214 208 203 195 190 191 190 185 183 184 183 183 182 179 174 170 166 163 159 155 150 146 142 140 138 136 138 146 156 166 178 191 201 207 211 213 215 216 217 217 218 219 225 231 235 240 246 249 249 252 260 269 272 273 277 285 295 304 308 313 320
208 204 203 205 206 207 208 209 209 211 211 210 211 213 215 217 217 217 216 215 216 219 221 222 220 216 212 205 196 194 194 190 187 188 189 187 186 185 181 176 172 169 166 164 161 157 156 154 154 156 159 167 180 191 195 204 212 216 219 220 222 225 226 227 228 228 231 235 240 244 247 249 250 251 255 262 265 268 274 281 285 289 295 303 313
211 207 205 205 206 207 208 209 210 212 212 212 211 212 213 215 218 220 220 219 218 218 220 223 224 223 219 212 204 198 196 195 191 191 192 192 190 189 187 184 180 177 176 175 174 172 172 175 179 186 193 202 215 226 232 237 241 239 238 236 235 234 234 235 235 236 237 238 242 247 250 252 254 252 251 256 261 262 266 273 278 282 288 296 305
213 210 208 206 206 207 208 209 211 213 214 214 213 212 213 214 217 221 224 224 223 220 219 221 225 227 224 217 211 203 198 198 196 192 193 196 195 193 192 191 189 187 187 187 188 190 191 194 202 213 221 224 231 239 246 250 253 253 252 250 250 249 246 244 243 243 243 242 243 246 248 252 257 255 250 254 259 261 263 269 275 282 286 291 299
211 210 208 207 206 207 208 210 211 213 215 216 215 214 214 214 216 219 223 225 226 225 222 222 225 229 229 223 216 209 202 199 198 195 195 197 199 198 196 195 196 197 198 200 204 209 210 212 217 225 232 238 240 243 250 255 258 261 260 257 257 258 257 254 252 251 251 250 249 248 246 250 255 256 253 253 256 260 263 267 273 280 286 290 296
208 208 206 206 207 208 209 210 212 214 215 216 217 216 215 215 216 218 220 222 224 226 226 225 225 228 230 227 221 212 206 203 200 198 198 199 201 202 202 201 201 202 204 209 216 222 226 228 232 236 243 248 249 249 251 255 260 266 268 266 264 265 265 264 262 259 257 256 256 253 249 250 254 255 256 257 257 257 261 265 269 274 281 288 294
205 205 205 206 208 208 209 211 212 215 216 217 219 219 218 218 218 218 219 220 222 224 226 227 227 227 228 228 224 216 211 208 205 202 201 201 202 204 206 206 206 206 209 213 219 225 231 237 245 251 256 260 261 261 261 261 263 267 272 273 271 270 270 270 268 267 264 262 263 261 257 255 256 255 255 259 260 260 262 265 268 272 277 284 290
205 203 204 207 209 209 210 211 212 214 217 220 222 224 224 223 222 222 222 222 222 223 225 226 227 227 227 228 226 221 216 214 211 207 205 205 205 206 207 209 210 211 213 217 222 227 232 241 251 258 262 264 265 267 268 268 268 270 275 278 277 274 272 271 271 272 271 269 268 267 264 261 262 260 256 256 259 263 265 267 269 271 275 280 285
204 204 205 207 208 209 210 211 211 212 214 218 222 225 227 227 227 226 226 226 225 225 224 224 226 228 229 228 226 223 220 219 217 213 210 209 208 208 209 210 212 214 217 221 226 231 237 245 254 260 262 262 264 266 268 269 271 273 277 279 279 277 275 276 276 276 275 272 270 269 268 267 265 265 262 258 258 262 266 268 270 272 275 279 283
204 203 205 206 206 207 208 208 209 210 212 215 219 223 226 228 229 229 229 229 229 228 226 226 226 227 229 229 227 224 223 223 221 218 215 214 212 211 210 211 213 216 219 223 228 234 241 248 253 257 258 258 259 261 262 266 270 273 276 277 277 277 278 279 279 279 279 277 273 271 271 271 268 268 268 265 262 263 265 268 272 275 277 279 283
209 206 204 204 203 203 204 204 206 209 212 215 218 220 222 224 226 229 230 231 231 230 229 227 226 227 227 228 229 227 226 226 226 223 220 219 217 215 213 213 214 216 219 223 227 233 240 245 249 252 254 255 255 256 257 260 265 269 272 273 275 277 278 278 277 278 280 280 278 275 274 274 273 272 274 273 270 267 266 266 270 275 277 280 283
217 214 210 206 204 201 199 200 203 206 210 213 215 216 218 219 222 224 227 229 230 230 230 229 228 227 227 228 229 229 228 229 230 228 226 224 222 219 217 216 216 217 219 223 226 231 237 240 244 247 249 251 252 253 254 255 259 263 265 268 272 276 278 276 275 276 276 278 279 279 278 278 277 276 277 278 278 275 272 269 269 272 275 278 282
216 218 215 212 209 204 200 199 202 205 208 211 213 215 216 217 219 222 224 226 227 228 228 229 228 228 227 227 227 227 229 231 232 231 231 230 228 225 222 221 220 219 221 224 227 231 236 238 240 242 246 249 250 251 252 253 254 256 259 262 266 271 275 275 273 273 274 276 279 281 281 281 281 280 280 280 281 281 279 275 273 274 274 274 278
214 215 216 216 215 211 206 202 202 204 207 209 211 213 216 218 220 221 223 224 225 225 226 226 227 228 228 227 226 225 227 230 232 233 234 234 233 230 227 226 225 225 226 228 230 232 236 238 239 240 243 247 249 249 251 251 251 253 256 258 261 267 271 270 270 273 277 279 279 280 281 282 283 283 283 282 282 283 282 280 280 281 279 276 277
214 213 214 216 218 217 214 210 207 206 206 208 210 212 215 217 219 222 223 224 225 226 226 226 226 227 229 229 228 226 226 229 231 232 234 235 235 233 231 229 228 229 230 233 234 235 237 240 241 241 242 245 248 249 250 250 249 250 253 256 260 264 265 266 269 274 278 279 279 280 281 282 284 285 285 285 285 284 284 284 287 289 287 283 282
213 213 213 215 218 220 221 219 217 212 210 210 211 213 215 216 219 221 223 224 225 226 227 227 226 227 229 231 231 230 229 230 231 232 234 235 236 235 233 231 230 230 232 234 236 238 239 241 243 244 244 246 248 250 251 251 248 247 250 254 257 259 261 264 269 272 274 276 277 279 280 282 284 285 286 287 287 286 286 287 288 290 290 289 289
214 213 213 214 217 221 223 225 225 222 219 217 216 216 216 216 218 220 221 222 224 226 227 227 226 226 228 230 232 232 232 232 232 232 233 235 236 237 236 234 232 232 232 234 237 239 241 244 245 246 246 247 248 250 252 252 250 246 247 250 254 258 262 266 268 270 272 273 274 276 279 280 282 283 285 286 287 286 285 285 285 286 288 289 291
216 216 216 216 217 220 223 225 227 227 226 227 226 223 221 220 220 221 222 223 224 225 227 227 226 225 226 228 231 232 233 234 234 234 234 235 236 237 238 237 236 235 234 235 237 240 242 244 246 247 247 247 248 250 252 254 252 247 244 246 252 258 263 267 270 272 273 274 274 277 279 280 282 284 285 287 287 286 284 282 282 282 283 285 288
218 219 220 220 219 220 222 225 227 227 228 231 233 231 227 225 224 224 224 225 225 226 227 228 226 225 225 227 230 232 234 236 237 238 238 237 237 237 237 237 239 238 237 237 238 239 241 243 245 247 248 248 248 250 252 254 253 248 245 245 249 255 260 265 269 272 273 275 277 278 279 281 283 286 289 291 291 290 287 283 282 281 281 283 286
219 219 219 220 221 221 221 224 227 227 226 227 230 231 231 229 227 226 227 228 228 227 228 229 229 227 226 228 230 232 234 235 237 239 242 243 242 240 238 237 238 239 239 238 239 240 240 242 244 246 247 249 250 252 254 255 253 249 246 246 249 254 259 263 265 268 271 274 276 277 278 281 284 288 290 292 293 293 290 288 286 284 284 284 286
218 218 219 220 221 222 222 224 228 230 227 223 222 225 228 229 228 226 226 228 229 228 229 230 231 231 230 230 231 232 233 234 235 237 240 243 246 246 244 241 239 238 238 238 239 240 240 242 243 246 248 251 253 254 255 254 252 249 248 250 252 255 258 260 262 266 270 273 276 278 281 283 286 288 289 291 292 292 291 290 289 288 288 288 289
219 221 222 221 221 222 222 224 229 231 226 219 215 219 224 227 227 226 225 226 227 227 228 230 232 232 232 232 233 234 235 235 235 236 239 242 245 247 248 247 244 240 238 238 239 240 240 242 244 246 248 250 252 253 254 253 251 250 251 252 253 254 256 258 261 265 269 272 275 279 282 286 289 292 293 294 294 293 292 292 292 292 292 292 292
225 225 224 222 222 222 221 222 226 227 220 213 211 215 222 227 227 226 226 227 228 228 228 229 230 230 230 230 233 235 236 237 237 238 240 243 244 245 245 246 246 244 241 240 241 241 240 241 242 244 245 247 249 251 252 252 251 251 251 251 251 251 253 256 260 264 267 269 273 277 281 285 289 292 293 293 294 294 295 297 297 297 296 297 297
224 224 221 219 221 222 219 218 221 221 216 213 212 216 222 226 227 227 228 229 231 231 231 230 229 228 227 228 231 234 237 239 240 241 241 243 244 244 243 245 247 247 245 243 242 241 241 241 242 244 245 247 249 250 251 250 249 248 248 248 248 248 250 254 258 261 263 266 270 274 278 282 285 286 286 288 291 293 294 296 296 296 297 298 298
221 221 220 217 217 218 216 216 218 217 215 214 216 218 222 225 227 229 230 231 232 233 234 233 231 229 227 227 229 232 235 238 241 241 242 243 244 245 245 245 247 248 248 248 247 247 247 247 246 246 247 248 249 249 248 247 246 246 246 245 245 246 248 252 255 257 260 263 267 271 277 282 285 287 289 291 292 293 293 294 294 293 294 295 295
220 220 221 219 216 216 217 218 219 220 218 216 216 217 219 222 226 229 231 232 233 234 235 235 234 233 231 230 231 231 232 234 238 241 244 245 246 247 247 247 248 249 250 251 253 255 256 254 251 249 248 248 247 246 245 244 245 245 246 245 245 246 248 251 253 255 258 263 270 277 282 286 288 290 292 293 293 293 294 294 294 294 294 294 294
219 220 222 223 221 221 221 221 221 223 223 221 218 217 219 222 225 228 229 231 232 233 234 235 235 235 234 233 233 233 232 233 237 241 245 248 249 249 249 248 248 250 252 254 256 258 259 256 252 249 247 246 245 244 244 245 246 246 246 245 247 248 249 250 252 256 262 270 277 282 284 284 286 288 290 291 292 294 295 295 295 295 295 295 295
221 222 223 223 223 223 223 223 223 223 223 221 220 219 220 222 224 226 227 229 230 231 232 234 235 237 237 236 235 236 235 236 239 240 243 247 250 251 252 250 249 250 253 256 258 260 260 256 251 248 247 246 244 244 245 245 245 246 246 247 248 248 247 248 253 260 268 275 278 280 280 282 284 287 289 291 292 294 295 295 295 295 295 295 296
224 225 224 223 223 224 224 223 223 222 221 221 221 221 221 222 224 224 226 228 231 232 233 234 236 238 239 240 240 240 240 241 243 243 242 244 248 251 252 252 251 251 254 257 260 260 258 254 249 246 245 245 244 245 245 245 244 244 243 242 242 241 243 248 256 264 269 273 275 276 278 280 283 286 289 291 292 294 295 295 294 294 294 295 296
225 225 225 223 222 223 224 224 223 223 222 222 222 222 222 223 224 224 225 227 229 231 233 235 237 239 240 241 242 243 243 243 245 246 244 244 246 248 250 251 251 252 254 258 260 259 257 251 246 245 245 245 245 245 244 244 244 243 241 237 234 235 242 250 258 264 268 271 273 276 278 279 281 284 288 290 291 293 294 294 294 294 295 295 296
224 224 226 225 223 223 225 226 225 225 224 224 223 223 224 224 224 224 225 226 227 228 230 233 236 238 239 240 241 243 243 243 245 247 246 245 245 247 249 251 252 253 254 255 256 256 254 249 245 244 244 244 245 246 246 246 247 247 246 244 240 240 246 252 258 264 268 271 274 276 278 280 282 285 287 289 290 292 293 294 293 292 292 292 292
224 226 228 226 224 224 226 228 228 227 227 226 226 226 226 226 225 224 224 226 227 229 230 231 233 236 238 240 242 244 245 245 246 248 248 247 247 248 250 253 254 254 253 253 252 251 249 246 243 242 243 245 248 249 249 249 247 246 247 247 245 244 248 255 260 265 269 272 274 276 278 281 284 286 287 289 291 292 293 293 290 287 286 286 286
226 227 229 229 227 226 227 229 230 230 230 229 229 229 229 229 228 226 225 226 228 230 231 232 234 236 236 236 239 243 246 247 246 247 249 249 248 249 251 254 256 255 253 251 250 248 246 243 242 242 244 247 248 248 249 250 246 245 249 251 247 244 249 257 262 267 270 272 275 277 279 282 284 286 288 290 291 292 293 292 288 284 283 284 285
228 228 230 231 231 230 230 231 232 232 233 233 233 233 232 232 231 230 230 229 230 231 232 233 236 237 236 232 233 239 244 247 247 247 249 250 251 251 252 254 257 257 253 250 249 248 245 243 243 243 245 247 247 246 248 248 243 244 253 259 257 254 254 258 262 267 270 273 276 278 280 282 284 286 288 289 290 291 292 290 285 281 282 284 284
230 230 231 233 234 234 234 234 234 234 235 234 234 235 235 235 234 234 234 234 233 232 232 234 236 238 238 235 233 235 240 244 247 248 250 252 252 252 252 253 256 256 253 250 249 249 246 244 242 242 244 246 246 245 247 248 246 247 253 257 258 258 259 260 263 267 270 273 276 277 280 282 284 285 287 288 288 288 286 283 282 284 286 285 283
232 231 232 234 234 235 235 235 235 235 236 235 235 235 236 236 236 235 235 236 236 235 235 235 236 236 237 237 236 236 238 241 244 246 249 251 252 253 253 254 255 255 251 249 249 249 246 244 241 241 242 244 245 245 249 253 255 257 257 256 258 261 262 263 266 269 271 273 275 277 280 281 282 284 286 287 287 286 283 281 282 285 285 283 282
233 233 232 232 233 234 235 235 235 235 236 236 235 235 236 237 237 237 236 236 238 238 238 238 238 237 235 236 237 238 239 241 242 244 246 249 251 252 252 252 253 252 250 249 250 249 247 245 243 242 243 245 247 250 253 254 256 260 263 263 263 264 265 267 268 270 272 275 277 279 280 280 281 282 283 284 284 285 284 283 283 283 282 281 281
234 232 231 230 231 233 235 235 235 235 236 236 235 236 237 238 238 239 239 238 240 242 243 243 243 241 238 238 239 239 239 240 241 242 245 247 249 250 250 250 250 250 248 248 249 249 247 244 243 244 245 246 248 251 253 253 254 258 262 263 263 264 267 269 270 272 275 277 279 280 280 280 281 281 282 283 283 283 282 282 281 281 280 280 281
234 231 229 228 229 232 235 235 235 236 237 238 237 236 237 238 238 239 240 241 243 245 245 245 244 241 239 239 237 236 236 238 239 241 244 247 249 249 250 249 249 249 247 246 246 246 244 242 242 244 246 247 249 251 252 254 256 258 260 261 262 265 268 270 271 273 276 278 279 281 281 281 281 282 284 284 283 281 279 279 278 278 279 280 281
233 231 231 229 227 230 234 236 237 237 238 239 239 238 238 238 238 238 239 242 245 246 247 246 244 239 236 235 234 234 235 238 239 240 244 247 248 249 249 249 250 251 249 245 243 242 241 240 242 245 246 247 249 251 253 255 257 258 260 262 263 266 269 272 273 274 275 277 278 279 280 281 281 282 282 281 280 278 276 276 276 277 279 280 282
232 232 233 230 227 228 232 234 237 238 238 239 241 241 240 240 241 241 242 244 245 245 245 246 244 240 237 238 239 238 237 237 238 241 244 247 248 247 247 248 250 253 251 246 241 239 237 237 240 243 245 247 249 251 252 254 255 257 259 262 264 267 270 271 272 273 274 275 276 277 277 277 277 276 276 276 275 275 274 275 276 278 279 281 283
234 235 235 232 228 228 230 232 234 237 238 239 242 243 243 244 244 245 245 245 245 245 245 245 245 244 243 244 244 242 237 235 237 239 242 246 247 247 247 249 250 251 251 246 240 235 234 235 237 240 242 244 247 249 251 253 255 257 259 263 266 267 268 268 269 270 271 272 273 273 273 273 272 270 271 272 273 273 274 276 278 280 282 283 285
237 238 237 233 229 229 230 230 231 235 238 240 242 244 244 245 245 246 247 247 247 246 246 245 246 247 247 247 246 244 240 238 238 238 240 243 245 245 246 247 246 248 250 246 239 235 236 237 237 239 240 242 246 249 252 254 256 258 261 264 266 266 265 265 266 268 269 270 270 269 269 269 270 271 271 273 275 276 277 279 280 282 284 285 287
238 239 236 230 227 229 231 230 231 234 238 241 244 245 244 243 244 245 246 247 248 248 249 249 250 250 250 249 248 245 243 242 241 240 240 241 240 241 243 244 244 248 249 244 237 237 239 239 237 238 241 242 245 249 253 255 258 260 262 263 263 263 263 263 264 267 269 269 269 268 268 269 271 273 274 276 278 279 280 282 283 285 286 287 288
236 236 231 227 227 231 234 234 235 237 238 240 244 246 245 243 243 244 245 247 248 248 248 248 249 250 251 250 248 246 243 242 242 242 241 239 237 237 240 243 247 250 247 241 238 240 240 236 234 237 240 242 246 249 252 254 257 260 261 261 260 260 262 263 264 266 268 268 269 269 269 271 272 274 276 278 279 280 282 283 284 285 286 287 288
233 232 230 229 231 235 238 238 240 241 241 241 243 244 245 244 242 242 243 244 245 247 248 250 250 250 249 248 247 246 245 244 244 244 242 239 238 238 241 244 248 248 244 239 238 240 238 235 235 237 239 242 246 250 253 256 258 259 258 258 258 259 260 262 264 265 266 267 267 268 270 272 273 275 276 278 279 280 282 283 284 285 286 287 288
233 233 232 232 234 238 241 243 244 245 246 245 243 243 244 245 244 243 243 243 244 247 247 243 237 240 245 247 246 245 244 244 246 246 243 239 238 239 241 243 245 245 241 237 235 234 234 235 237 238 239 242 247 250 255 259 261 259 257 256 257 259 260 261 263 265 266 266 267 268 270 272 274 275 276 277 279 280 281 282 283 284 285 285 286
Height
5917 5919 5921 5923 5926 5928 5930 5932 5933 5935 5936 5937 5938 5939 5941 5942 5943 5944 5945 5946 5947 5947 5948 5949 5951 5952 5952 5953 5954 5954 5955 5955 5956 5957 5957 5958 5958 5958 5959 5959 5960 5960 5960 5961 5961 5961 5962 5962 5963 5963 5964 5964 5965 5965 5965 5966 5966 5966 5967 5968 5969 5970 5970 5971 5971 5971 5971 5971 5971 5971 5971 5970 5970 5969 5969 5968 5968 5968 5968 5967 5966 5964 5963 5962 5961
5915 5917 5918 5921 5924 5926 5928 5929 5931 5933 5935 5936 5937 5938 5939 5940 5942 5943 5944 5945 5946 5947 5947 5949 5950 5950 5951 5952 5953 5953 5954 5955 5955 5956 5957 5957 5958 5958 5959 5959 5960 5960 5961 5961 5961 5962 5962 5962 5963 5963 5964 5964 5965 5965 5966 5966 5966 5967 5967 5968 5968 5969 5970 5970 5971 5971 5971 5971 5971 5971 5971 5970 5970 5969 5969 5968 5968 5968 5967 5966 5965 5964 5962 5961 5960
5912 5914 5916 5918 5920 5922 5925 5927 5929 5931 5933 5935 5935 5936 5937 5938 5940 5941 5943 5944 5945 5946 5947 5947 5948 5949 5950 5951 5952 5953 5953 5954 5954 5955 5956 5957 5957 5958 5958 5959 5960 5960 5961 5961 5961 5962 5962 5962 5963 5963 5963 5964 5964 5965 5966 5966 5967 5967 5967 5967 5968 5968 5969 5969 5970 5970 5971 5971 5971 5970 5970 5970 5970 5969 5969 5968 5968 5967 5966 5965 5964 5963 5962 5961 5960
5909 5911 5914 5916 5917 5919 5922 5925 5927 5929 5931 5933 5934 5935 5936 5937 5938 5939 5941 5942 5943 5944 5945 5946 5947 5948 5949 5950 5951 5952 5952 5953 5954 5954 5955 5956 5957 5957 5958 5959 5959 5960 5960 5961 5961 5962 5962 5962 5963 5963 5963 5964 5964 5965 5965 5966 5966 5967 5967 5967 5968 5968 5968 5969 5969 5969 5970 5970 5970 5970 5970 5969 5969 5969 5968 5968 5967 5966 5965 5965 5964 5963 5961 5960 5959
5908 5909 5911 5913 5915 5917 5920 5922 5925 5927 5929 5931 5932 5933 5934 5936 5937 5938 5939 5940 5942 5943 5944 5946 5947 5947 5948 5949 5950 5950 5951 5952 5953 5954 5955 5955 5956 5957 5957 5958 5959 5959 5960 5961 5961 5962 5962 5962 5963 5963 5963 5964 5964 5964 5965 5965 5966 5966 5967 5967 5967 5968 5968 5968 5968 5969 5969 5969 5969 5969 5969 5969 5968 5968 5968 5967 5966 5965 5965 5964 5963 5962 5961 5960 5958
5906 5907 5909 5910 5913 5915 5918 5920 5922 5924 5926 5928 5930 5931 5933 5934 5936 5937 5938 5939 5940 5941 5943 5944 5946 5946 5947 5948 5949 5949 5950 5951 5952 5953 5954 5955 5956 5956 5957 5958 5958 5959 5960 5960 5961 5961 5962 5962 5963 5963 5964 5964 5964 5964 5965 5965 5965 5966 5966 5967 5967 5967 5967 5967 5967 5968 5968 5968 5968 5968 5968 5968 5967 5967 5967 5966 5966 5965 5964 5963 5962 5961 5960 5959 5958
5904 5905 5907 5908 5911 5913 5915 5918 5920 5921 5923 5925 5927 5929 5931 5933 5935 5936 5937 5938 5939 5940 5941 5943 5944 5945 5946 5947 5947 5948 5949 5949 5951 5952 5953 5954 5955 5956 5957 5957 5958 5959 5959 5960 5960 5961 5961 5962 5962 5963 5963 5964 5964 5964 5964 5964 5965 5965 5965 5966 5966 5966 5966 5966 5966 5967 5967 5967 5967 5967 5967 5966 5966 5966 5965 5965 5964 5964 5963 5962 5961 5960 5959 5958 5958
5902 5903 5905 5907 5909 5911 5913 5915 5917 5919 5921 5922 5924 5927 5929 5931 5933 5934 5936 5937 5939 5940 5941 5942 5942 5943 5944 5945 5946 5947 5948 5948 5949 5951 5952 5953 5954 5955 5956 5956 5957 5958 5958 5959 5960 5960 5961 5961 5962 5962 5963 5963 5963 5964 5964 5964 5964 5964 5964 5964 5965 5965 5965 5965 5965 5965 5965 5965 5965 5965 5965 5965 5965 5965 5964 5963 5963 5962 5962 5961 5960 5959 5958 5957 5957
5899 5900 5902 5905 5907 5909 5911 5912 5914 5916 5918 5920 5922 5925 5927 5928 5930 5931 5933 5935 5937 5938 5940 5940 5941 5942 5943 5944 5945 5945 5946 5947 5948 5949 5950 5951 5953 5954 5954 5955 5956 5956 5957 5958 5959 5959 5960 5960 5961 5961 5962 5962 5963 5963 5963 5963 5963 5963 5963 5963 5963 5963 5964 5964 5964 5964 5964 5964 5964 5964 5964 5963 5963 5963 5963 5962 5961 5961 5960 5959 5958 5957 5956 5956 5956
5895 5897 5900 5902 5904 5906 5908 5910 5912 5913 5915 5917 5919 5921 5923 5925 5926 5928 5930 5932 5934 5936 5937 5939 5940 5941 5942 5943 5944 5944 5945 5945 5946 5947 5948 5949 5950 5952 5953 5954 5955 5955 5956 5957 5957 5958 5958 5959 5959 5960 5961 5961 5961 5962 5962 5962 5962 5962 5962 5962 5962 5962 5962 5962 5962 5962 5962 5962 5962 5962 5962 5961 5961 5961 5961 5961 5960 5959 5959 5958 5958 5957 5956 5954 5954
5892 5895 5897 5899 5901 5903 5905 5907 5909 5911 5913 5915 5917 5919 5920 5922 5924 5925 5927 5928 5930 5932 5934 5936 5938 5939 5940 5941 5942 5943 5943 5943 5943 5944 5945 5947 5948 5949 5951 5952 5953 5954 5954 5955 5956 5956 5957 5957 5958 5958 5959 5959 5960 5960 5960 5961 5961 5961 5961 5961 5961 5961 5961 5961 5961 5960 5960 5960 5960 5960 5960 5959 5959 5959 5959 5959 5958 5958 5957 5957 5957 5956 5955 5954 5953
5890 5892 5894 5895 5897 5900 5903 5905 5907 5909 5911 5913 5915 5917 5918 5920 5922 5923 5925 5926 5927 5928 5930 5933 5934 5936 5938 5939 5940 5941 5941 5941 5941 5942 5943 5944 5945 5947 5948 5949 5951 5952 5953 5953 5954 5954 5955 5956 5956 5956 5957 5957 5958 5958 5959 5959 5959 5959 5959 5959 5960 5960 5959 5959 5959 5958 5958 5958 5958 5958 5957 5957 5956 5957 5957 5957 5957 5957 5956 5956 5956 5955 5955 5954 5953
5886 5888 5890 5892 5894 5897 5899 5902 5904 5906 5908 5910 5912 5914 5916 5918 5920 5922 5923 5923 5924 5925 5927 5929 5931 5933 5935 5936 5938 5939 5939 5939 5939 5940 5940 5941 5943 5944 5946 5947 5949 5950 5951 5952 5952 5953 5953 5954 5955 5955 5955 5955 5956 5956 5957 5957 5957 5957 5957 5957 5958 5957 5957 5957 5957 5956 5956 5956 5955 5955 5954 5954 5954 5954 5955 5955 5955 5955 5955 5955 5954 5954 5953 5953 5952
5881 5884 5886 5889 5891 5893 5896 5898 5901 5903 5905 5906 5908 5911 5913 5916 5918 5919 5920 5921 5922 5923 5924 5926 5927 5929 5931 5933 5935 5936 5936 5937 5937 5937 5938 5939 5940 5941 5943 5945 5946 5948 5949 5950 5951 5951 5952 5953 5953 5953 5953 5954 5954 5954 5954 5955 5955 5955 5956 5955 5955 5955 5955 5955 5955 5954 5954 5953 5953 5952 5951 5951 5952 5951 5952 5953 5953 5953 5953 5953 5953 5953 5952 5952 5951
5881 5882 5884 5885 5887 5889 5892 5895 5897 5899 5901 5903 5906 5908 5910 5912 5914 5916 5917 5918 5919 5920 5921 5922 5924 5926 5928 5929 5931 5933 5934 5934 5935 5935 5936 5936 5937 5938 5940 5942 5944 5945 5947 5948 5949 5950 5950 5951 5951 5951 5951 5952 5952 5952 5952 5953 5953 5954 5954 5953 5953 5953 5953 5952 5952 5952 5951 5951 5950 5950 5949 5949 5949 5949 5949 5951 5951 5951 5951 5951 5950 5950 5950 5950 5949
5883 5884 5884 5885 5885 5886 5888 5890 5892 5895 5897 5899 5902 5904 5906 5908 5909 5911 5913 5914 5916 5917 5918 5920 5921 5923 5924 5926 5928 5930 5931 5932 5933 5933 5934 5934 5934 5936 5937 5939 5941 5942 5944 5945 5946 5947 5947 5948 5949 5949 5949 5949 5949 5949 5950 5950 5951 5952 5951 5951 5951 5950 5950 5949 5949 5949 5949 5949 5948 5947 5946 5946 5947 5947 5947 5948 5949 5949 5949 5948 5948 5948 5948 5947 5946
5880 5882 5884 5884 5884 5884 5885 5886 5888 5890 5893 5895 5898 5900 5902 5904 5905 5906 5908 5910 5912 5914 5915 5916 5917 5919 5921 5923 5925 5927 5928 5929 5930 5931 5931 5931 5932 5933 5935 5936 5937 5939 5940 5941 5942 5943 5944 5945 5946 5946 5946 5946 5946 5946 5947 5948 5949 5949 5949 5949 5948 5948 5947 5946 5946 5946 5946 5946 5946 5945 5944 5944 5944 5944 5945 5945 5946 5946 5946 5945 5945 5945 5945 5945 5944
5874 5877 5879 5881 5882 5883 5883 5883 5885 5887 5889 5892 5894 5896 5898 5899 5901 5903 5904 5906 5908 5910 5911 5912 5914 5915 5917 5919 5921 5923 5925 5926 5927 5928 5929 5929 5930 5931 5932 5933 5934 5936 5937 5938 5939 5940 5941 5941 5942 5943 5943 5943 5942 5943 5944 5945 5946 5946 5946 5946 5946 5946 5944 5943 5943 5943 5944 5944 5944 5943 5942 5942 5942 5942 5942 5942 5943 5943 5943 5942 5942 5942 5942 5942 5941
5868 5871 5874 5877 5880 5882 5882 5882 5883 5884 5887 5889 5891 5892 5894 5895 5897 5899 5901 5903 5905 5906 5908 5909 5910 5912 5913 5915 5917 5920 5921 5922 5924 5925 5926 5926 5927 5929 5929 5930 5932 5933 5934 5934 5935 5936 5937 5938 5938 5939 5940 5939 5939 5939 5940 5941 5943 5943 5942 5943 5944 5942 5940 5939 5941 5941 5941 5941 5941 5941 5940 5940 5940 5940 5940 5939 5940 5940 5940 5939 5939 5939 5939 5939 5938
5864 5867 5870 5873 5877 5880 5882 5883 5883 5884 5885 5887 5888 5889 5890 5892 5894 5896 5898 5900 5901 5903 5905 5906 5908 5909 5910 5912 5914 5916 5918 5919 5920 5922 5923 5923 5924 5925 5926 5928 5929 5930 5931 5931 5932 5933 5934 5934 5935 5935 5936 5935 5935 5935 5936 5937 5939 5940 5940 5940 5940 5938 5937 5937 5939 5939 5939 5939 5939 5938 5938 5938 5937 5937 5937 5937 5937 5937 5937 5937 5937 5937 5937 5936 5935
5861 5864 5866 5869 5873 5876 5879 5881 5883 5884 5885 5885 5885 5886 5887 5889 5891 5893 5895 5897 5898 5900 5902 5904 5905 5906 5908 5909 5911 5912 5914 5915 5916 5918 5919 5920 5921 5922 5923 5925 5926 5926 5927 5927 5928 5929 5930 5931 5931 5931 5931 5931 5931 5931 5932 5933 5935 5937 5937 5937 5936 5934 5934 5935 5936 5936 5936 5936 5936 5936 5935 5935 5935 5935 5935 5934 5934 5934 5934 5934 5934 5934 5934 5933 5932
5858 5860 5863 5866 5868 5871 5874 5877 5879 5881 5883 5884 5885 5886 5886 5887 5888 5890 5892 5894 5895 5897 5899 5901 5903 5904 5905 5907 5908 5909 5910 5911 5912 5914 5916 5917 5918 5919 5921 5922 5922 5922 5923 5924 5925 5926 5926 5926 5926 5926 5926 5927 5927 5927 5928 5929 5932 5934 5934 5933 5933 5932 5932 5932 5932 5932 5933 5932 5933 5933 5932 5932 5932 5932 5932 5932 5932 5931 5931 5931 5931 5931 5930 5930 5929
5853 5856 5859 5861 5864 5866 5869 5871 5874 5877 5879 5881 5883 5885 5885 5886 5887 5888 5889 5891 5893 5894 5896 5898 5899 5901 5903 5904 5906 5906 5907 5907 5909 5910 5911 5913 5914 5916 5917 5918 5918 5919 5920 5921 5921 5922 5922 5922 5922 5921 5921 5921 5923 5924 5924 5926 5928 5930 5930 5930 5930 5930 5930 5930 5930 5929 5929 5929 5930 5930 5929 5929 5929 5929 5929 5929 5928 5928 5928 5927 5927 5927 5927 5927 5927
5848 5851 5854 5856 5858 5861 5863 5866 5869 5871 5874 5876 5879 5881 5883 5884 5885 5886 5887 5889 5891 5892 5894 5895 5896 5898 5900 5902 5903 5904 5904 5905 5906 5906 5907 5908 5909 5911 5913 5914 5914 5915 5916 5917 5917 5917 5917 5917 5917 5916 5915 5916 5918 5919 5921 5923 5925 5926 5926 5926 5926 5927 5927 5927 5927 5926 5926 5927 5927 5927 5927 5926 5927 5927 5926 5926 5925 5925 5925 5924 5924 5924 5924 5924 5923
5843 5846 5848 5850 5853 5855 5859 5862 5864 5866 5869 5871 5873 5876 5879 5880 5881 5883 5885 5886 5888 5890 5892 5893 5894 5896 5898 5899 5901 5902 5902 5902 5903 5903 5904 5904 5905 5906 5908 5909 5910 5911 5912 5913 5912 5912 5912 5912 5912 5911 5912 5913 5914 5915 5917 5920 5921 5921 5921 5922 5923 5923 5924 5923 5923 5923 5924 5924 5924 5924 5924 5924 5924 5924 5923 5923 5923 5922 5922 5921 5921 5921 5920 5920 5919
5838 5841 5843 5845 5848 5850 5854 5857 5859 5861 5863 5865 5867 5871 5874 5875 5877 5878 5880 5882 5885 5888 5890 5891 5892 5894 5895 5897 5898 5898 5899 5899 5900 5900 5900 5901 5901 5902 5903 5904 5905 5906 5907 5908 5908 5908 5908 5908 5908 5908 5908 5909 5910 5911 5913 5915 5916 5917 5917 5918 5919 5919 5919 5919 5920 5921 5921 5921 5921 5921 5921 5921 5921 5921 5920 5920 5919 5919 5919 5918 5918 5917 5917 5916 5916
5832 5835 5837 5840 5843 5846 5849 5852 5854 5855 5857 5859 5862 5866 5868 5871 5873 5874 5876 5879 5882 5885 5887 5888 5890 5891 5893 5894 5894 5894 5895 5896 5897 5898 5898 5898 5898 5898 5898 5899 5900 5901 5902 5903 5902 5902 5903 5902 5903 5903 5904 5905 5906 5907 5909 5910 5911 5912 5913 5914 5914 5915 5915 5916 5917 5918 5918 5918 5918 5918 5918 5918 5918 5918 5917 5917 5916 5916 5916 5915 5915 5914 5914 5913 5912
5827 5829 5831 5835 5839 5842 5845 5848 5850 5851 5853 5855 5858 5861 5863 5866 5868 5870 5873 5876 5879 5882 5883 5885 5886 5888 5889 5890 5890 5890 5891 5893 5894 5895 5895 5893 5892 5892 5893 5895 5896 5896 5897 5897 5896 5896 5897 5898 5898 5899 5900 5901 5902 5904 5905 5906 5907 5908 5909 5909 5910 5911 5912 5913 5914 5915 5915 5915 5915 5916 5915 5915 5915 5915 5914 5914 5913 5913 5913 5913 5912 5911 5910 5909 5908
5823 5825 5828 5831 5834 5837 5840 5843 5845 5847 5849 5851 5853 5856 5859 5861 5864 5866 5869 5871 5873 5876 5878 5880 5882 5884 5884 5885 5885 5886 5888 5890 5891 5890 5889 5888 5887 5888 5890 5892 5892 5892 5892 5891 5891 5892 5894 5895 5895 5896 5897 5898 5899 5900 5901 5902 5902 5903 5904 5905 5906 5907 5908 5910 5911 5911 5912 5912 5912 5913 5912 5912 5912 5911 5911 5910 5910 5909 5909 5909 5908 5907 5906 5905 5905
5818 5821 5824 5827 5829 5832 5835 5838 5840 5843 5845 5847 5849 5852 5854 5857 5858 5861 5863 5865 5867 5869 5872 5874 5876 5878 5879 5880 5881 5882 5884 5886 5885 5884 5884 5884 5884 5886 5887 5887 5888 5888 5887 5887 5887 5889 5891 5892 5892 5893 5893 5893 5894 5895 5896 5896 5897 5898 5899 5901 5902 5904 5905 5906 5907 5907 5908 5908 5909 5909 5909 5909 5908 5907 5907 5906 5905 5904 5904 5904 5903 5902 5902 5901 5900
5813 5816 5820 5822 5824 5826 5829 5833 5835 5838 5840 5842 5844 5847 5849 5851 5853 5855 5858 5860 5862 5864 5866 5868 5870 5871 5873 5875 5876 5878 5880 5881 5880 5880 5880 5880 5881 5882 5883 5883 5883 5883 5883 5883 5885 5888 5888 5888 5889 5889 5888 5889 5890 5891 5891 5891 5892 5893 5895 5896 5898 5899 5901 5902 5902 5903 5904 5905 5905 5905 5905 5905 5904 5904 5903 5902 5901 5900 5900 5899 5899 5898 5897 5896 5895
5809 5812 5814 5817 5819 5821 5824 5827 5830 5833 5835 5837 5839 5842 5844 5846 5848 5851 5854 5856 5858 5860 5861 5862 5864 5866 5868 5870 5872 5874 5876 5877 5876 5876 5876 5876 5876 5877 5878 5878 5879 5879 5878 5880 5883 5885 5885 5885 5885 5884 5884 5885 5886 5885 5885 5886 5888 5889 5890 5891 5893 5894 5895 5896 5897 5898 5900 5900 5901 5901 5901 5901 5901 5901 5900 5899 5898 5897 5896 5895 5894 5893 5892 5891 5890
5803 5806 5809 5811 5814 5817 5819 5822 5825 5827 5830 5833 5835 5837 5839 5841 5843 5847 5850 5852 5855 5857 5858 5859 5861 5863 5865 5867 5869 5871 5872 5872 5871 5872 5872 5873 5872 5872 5872 5872 5873 5874 5875 5877 5881 5883 5882 5881 5881 5881 5880 5881 5881 5880 5881 5882 5882 5882 5882 5883 5884 5887 5889 5891 5892 5894 5895 5896 5896 5897 5897 5897 5897 5897 5896 5895 5894 5893 5892 5891 5890 5889 5887 5886 5885
5798 5801 5803 5806 5809 5812 5814 5817 5819 5822 5825 5827 5830 5832 5834 5837 5839 5842 5845 5847 5849 5852 5855 5857 5860 5861 5862 5864 5865 5866 5867 5867 5866 5867 5867 5868 5867 5866 5866 5866 5868 5871 5873 5875 5877 5879 5878 5878 5878 5877 5877 5878 5877 5876 5876 5876 5876 5876 5876 5876 5876 5878 5882 5885 5888 5889 5891 5891 5892 5893 5893 5893 5892 5892 5891 5890 5889 5888 5887 5885 5884 5883 5882 5880 5879
5792 5795 5797 5800 5803 5806 5809 5811 5814 5816 5819 5821 5824 5827 5829 5832 5835 5838 5840 5841 5843 5846 5849 5852 5854 5855 5857 5859 5859 5860 5861 5861 5861 5861 5862 5862 5861 5860 5860 5862 5864 5867 5869 5871 5873 5874 5874 5874 5875 5874 5874 5873 5872 5871 5873 5875 5877 5878 5879 5878 5876 5876 5877 5880 5883 5885 5886 5887 5888 5888 5888 5888 5887 5886 5885 5884 5883 5882 5881 5880 5878 5877 5875 5874 5874
5785 5788 5791 5794 5797 5800 5803 5805 5808 5810 5813 5815 5818 5821 5823 5826 5829 5831 5833 5835 5838 5841 5843 5845 5845 5847 5850 5853 5855 5856 5856 5856 5856 5856 5856 5856 5856 5856 5856 5858 5861 5863 5864 5866 5868 5869 5870 5870 5870 5870 5869 5868 5867 5867 5870 5873 5876 5877 5877 5877 5877 5875 5874 5876 5878 5880 5881 5882 5882 5882 5882 5882 5881 5880 5879 5879 5878 5877 5876 5874 5872 5870 5870 5869 5868
5779 5782 5785 5788 5791 5794 5797 5799 5802 5805 5808 5810 5813 5815 5817 5819 5822 5824 5827 5830 5833 5836 5838 5839 5839 5840 5843 5846 5849 5850 5851 5850 5850 5850 5850 5850 5850 5852 5853 5855 5857 5858 5860 5861 5862 5863 5864 5866 5866 5865 5864 5863 5863 5864 5866 5868 5869 5870 5872 5874 5874 5871 5869 5871 5874 5875 5876 5877 5877 5877 5877 5876 5875 5874 5873 5873 5872 5872 5871 5869 5866 5866 5866 5864 5863
5772 5776 5779 5782 5785 5788 5791 5793 5796 5799 5802 5805 5807 5809 5811 5814 5816 5819 5823 5827 5829 5831 5832 5833 5833 5834 5837 5839 5841 5842 5843 5842 5842 5843 5844 5844 5846 5848 5850 5851 5852 5854 5855 5856 5857 5858 5860 5861 5861 5860 5860 5859 5859 5860 5861 5861 5863 5865 5867 5870 5870 5867 5865 5866 5869 5869 5870 5871 5872 5871 5871 5870 5869 5868 5868 5868 5866 5866 5866 5864 5862 5861 5861 5859 5857
5766 5770 5773 5776 5779 5782 5785 5787 5790 5792 5796 5799 5801 5804 5806 5809 5812 5815 5819 5821 5822 5824 5825 5826 5828 5830 5832 5834 5834 5834 5834 5834 5835 5837 5838 5839 5841 5843 5845 5846 5848 5849 5850 5851 5852 5853 5855 5857 5857 5856 5855 5854 5855 5855 5855 5854 5857 5862 5864 5865 5864 5863 5862 5863 5864 5865 5866 5866 5867 5866 5866 5865 5864 5862 5862 5862 5861 5861 5861 5860 5858 5856 5855 5853 5852
5760 5764 5767 5771 5774 5777 5779 5782 5784 5786 5789 5792 5795 5798 5800 5803 5806 5809 5812 5813 5814 5816 5818 5820 5822 5824 5825 5827 5828 5827 5826 5827 5829 5830 5832 5833 5835 5838 5840 5842 5843 5844 5845 5846 5847 5849 5850 5852 5852 5852 5851 5850 5851 5852 5852 5852 5854 5856 5857 5857 5857 5857 5858 5859 5859 5860 5861 5861 5861 5861 5860 5860 5859 5858 5856 5855 5854 5854 5854 5854 5852 5851 5850 5849 5847
5754 5758 5762 5766 5769 5772 5774 5776 5778 5780 5783 5786 5788 5791 5794 5797 5799 5802 5804 5807 5809 5810 5811 5813 5815 5817 5818 5819 5820 5820 5821 5822 5823 5823 5825 5827 5830 5832 5835 5836 5838 5839 5840 5842 5843 5844 5846 5848 5849 5848 5847 5846 5847 5848 5849 5850 5850 5850 5849 5849 5850 5851 5852 5853 5854 5855 5855 5855 5855 5855 5854 5854 5853 5853 5852 5851 5849 5848 5848 5848 5847 5846 5845 5844 5843
5747 5752 5756 5760 5764 5767 5769 5771 5773 5775 5777 5779 5782 5785 5788 5790 5793 5795 5798 5801 5804 5805 5805 5807 5809 5810 5810 5812 5813 5814 5817 5817 5817 5817 5819 5821 5824 5826 5829 5830 5832 5833 5835 5836 5838 5840 5843 5846 5846 5844 5842 5842 5843 5843 5843 5844 5844 5844 5843 5844 5845 5846 5846 5847 5849 5849 5849 5849 5849 5849 5849 5849 5848 5848 5847 5846 5845 5844 5844 5843 5842 5841 5840 5839 5838
5741 5745 5750 5755 5758 5761 5764 5766 5767 5769 5771 5773 5776 5779 5781 5783 5786 5788 5791 5794 5797 5798 5799 5800 5800 5800 5801 5803 5805 5807 5809 5809 5809 5810 5812 5814 5817 5820 5822 5824 5825 5827 5828 5830 5832 5834 5838 5841 5841 5840 5839 5838 5837 5836 5836 5836 5837 5838 5838 5839 5840 5841 5841 5841 5843 5843 5844 5843 5843 5843 5843 5843 5843 5842 5841 5841 5840 5839 5839 5838 5837 5836 5835 5833 5832
5735 5739 5743 5748 5752 5756 5759 5760 5762 5763 5765 5767 5770 5772 5774 5776 5779 5781 5784 5786 5789 5791 5791 5790 5789 5789 5791 5793 5795 5798 5801 5802 5803 5804 5805 5807 5810 5812 5814 5816 5818 5820 5822 5824 5824 5826 5829 5833 5834 5834 5833 5832 5830 5830 5830 5831 5831 5832 5833 5834 5834 5835 5835 5835 5836 5836 5837 5837 5837 5836 5836 5836 5836 5835 5835 5834 5834 5833 5833 5832 5831 5830 5828 5827 5825
5728 5733 5737 5740 5745 5750 5753 5755 5756 5758 5760 5762 5764 5766 5768 5770 5772 5775 5777 5779 5782 5783 5784 5783 5782 5783 5785 5786 5787 5789 5792 5795 5796 5798 5798 5800 5802 5804 5805 5808 5811 5813 5815 5817 5817 5818 5820 5823 5825 5826 5826 5826 5825 5826 5826 5827 5827 5828 5828 5828 5829 5829 5829 5829 5829 5829 5830 5830 5830 5830 5830 5830 5830 5829 5829 5828 5827 5827 5826 5826 5824 5823 5822 5820 5819
5722 5726 5730 5734 5738 5742 5746 5749 5751 5753 5754 5756 5758 5760 5762 5764 5766 5768 5770 5772 5774 5776 5777 5777 5778 5779 5780 5780 5780 5782 5784 5786 5788 5790 5791 5791 5792 5794 5797 5800 5803 5806 5808 5810 5811 5811 5811 5813 5816 5817 5818 5819 5820 5821 5822 5822 5823 5823 5823 5823 5823 5822 5823 5823 5823 5823 5823 5824 5824 5823 5823 5823 5823 5823 5822 5822 5821 5820 5819 5819 5817 5816 5814 5813 5811
5715 5720 5724 5728 5731 5735 5739 5742 5745 5747 5748 5751 5753 5755 5757 5759 5761 5762 5763 5765 5766 5767 5768 5769 5770 5771 5772 5773 5774 5775 5777 5779 5781 5781 5782 5782 5781 5783 5786 5791 5796 5799 5801 5802 5803 5804 5804 5806 5808 5809 5810 5812 5814 5815 5816 5817 5817 5817 5817 5817 5816 5816 5816 5816 5816 5816 5816 5816 5817 5817 5816 5816 5816 5816 5815 5814 5813 5813 5812 5811 5809 5808 5807 5805 5803
5709 5713 5717 5721 5725 5729 5732 5735 5738 5740 5743 5745 5747 5749 5751 5753 5754 5756 5757 5758 5759 5760 5761 5762 5763 5764 5764 5765 5766 5767 5769 5771 5772 5772 5773 5775 5775 5775 5778 5784 5789 5792 5794 5795 5796 5797 5798 5799 5800 5801 5802 5805 5807 5808 5809 5810 5810 5810 5811 5811 5810 5809 5809 5809 5809 5809 5809 5809 5809 5809 5809 5809 5808 5807 5807 5806 5805 5804 5803 5802 5800 5799 5798 5796 5794
5702 5706 5710 5714 5718 5722 5725 5728 5730 5733 5736 5739 5742 5744 5745 5747 5748 5750 5751 5752 5753 5753 5754 5754 5756 5757 5756 5756 5756 5757 5759 5761 5763 5764 5766 5769 5770 5770 5772 5777 5781 5784 5786 5788 5789 5790 5790 5790 5792 5794 5796 5798 5799 5801 5801 5802 5803 5803 5803 5803 5803 5803 5802 5802 5802 5802 5802 5802 5802 5802 5801 5801 5800 5799 5798 5797 5796 5795 5793 5792 5791 5790 5788 5787 5785
5696 5700 5704 5708 5711 5715 5719 5721 5723 5726 5729 5732 5736 5738 5739 5741 5743 5744 5745 5746 5746 5745 5746 5746 5746 5746 5747 5748 5749 5751 5752 5754 5756 5757 5759 5761 5762 5762 5765 5769 5773 5775 5777 5780 5782 5782 5783 5784 5786 5788 5789 5791 5792 5793 5794 5795 5795 5795 5794 5795 5795 5795 5795 5795 5795 5795 5795 5794 5794 5793 5793 5792 5791 5790 5789 5788 5787 5786 5785 5783 5782 5780 5779 5777 5775
5690 5694 5698 5701 5705 5709 5712 5715 5717 5720 5722 5725 5728 5731 5734 5736 5737 5738 5739 5740 5738 5737 5739 5739 5736 5735 5739 5743 5744 5745 5746 5748 5749 5749 5751 5753 5753 5754 5757 5762 5764 5766 5769 5772 5774 5775 5776 5778 5780 5781 5782 5784 5785 5786 5786 5786 5787 5786 5786 5786 5787 5787 5787 5787 5787 5787 5786 5786 5786 5785 5785 5784 5783 5782 5781 5780 5778 5777 5775 5774 5772 5771 5769 5767 5765